Miscellaneous Local Product
Issued by NWS Hastings, NE

Home | Current Version | Previous Version | Text Only | Print | Product List | Glossary On
Versions: 1 2 3 4 5 6 7 8 9 10 11 12 13 14 15 16 17 18 19 20 21 22 23 24 25 26 27 28 29 30 31 32 33 34 35 36 37 38 39 40 41 42 43 44 45 46 47 48 49 50
000
AXUS43 KGID 061102
MISGRI

GID CWA HOURLY WEATHER ROUNDUP
NATIONAL WEATHER SERVICE HASTINGS NE
600 AM CDT MON JUL 06 2015

NOTE: "FAIR" INDICATES FEW OR NO CLOUDS BELOW 12,000 FEET WITH NO
SIGNIFICANT WEATHER AND/OR OBSTRUCTIONS TO VISIBILITY.

...SOUTH CENTRAL NEBRASKA...

CITY           SKY/WX    TMP DP  RH WIND       PRES   REMARKS
GRAND ISLAND   CLOUDY    70  68  93 NE8       29.87S
HASTINGS       CLOUDY    70  68  93 NE6       29.87R
KEARNEY        CLOUDY    70  66  88 N8        29.89R
ORD            RAIN      69  67  93 NW8       29.90R
YORK           LGT RAIN  70  68  94 E7        29.87S
AURORA         CLOUDY    69  69 100 NE8       29.86F
LEXINGTON      CLOUDY    69  67  92 NW6       29.92R
HOLDREGE       CLOUDY    69  66  89 N8        29.89R THUNDER
HEBRON         CLOUDY    74  66  75 E7        29.87R

...NEBRASKA PANHANDLE...

CITY           SKY/WX    TMP DP  RH WIND       PRES   REMARKS
CHADRON        CLOUDY    59  56  89 N8        30.14R FOG
ALLIANCE       CLOUDY    60  58  92 N15       30.11R
SCOTTSBLUFF    RAIN      60  58  92 N10       30.14R FOG
SIDNEY         LGT RAIN  61  60  97 N13       30.12R

...WESTERN AND NORTH CENTRAL NEBRASKA...

CITY           SKY/WX    TMP DP  RH WIND       PRES   REMARKS
VALENTINE      CLOUDY    61  58  90 N14G22    30.03R
AINSWORTH      LGT RAIN  63  63 100 N25G31    29.99R
ONEILL         LGT RAIN  67  67  98 N14G25    29.89R
BROKEN BOW     CLOUDY    67  65  93 N9        29.94R
IMPERIAL       CLOUDY    65  61  87 N16G23    29.99R
NORTH PLATTE   CLOUDY    65  61  87 N12G18    29.97R
MCCOOK         CLOUDY    68  65  90 N12       29.91R

...EASTERN NEBRASKA...

CITY           SKY/WX    TMP DP  RH WIND       PRES   REMARKS
NORFOLK        LGT RAIN  70  68  93 N6        29.86F
SO SIOUX CITY  LGT RAIN  72  69  90 CALM      29.86R
TEKAMAH        LGT RAIN  73  70  90 N8        29.86R
COLUMBUS       CLOUDY    70  64  83 E6        29.83F
ALBION         LGT RAIN  70  66  89 E7        29.88F
OMAHA EPPLEY   CLOUDY    76  71  85 NW10      29.86R
OFFUTT AFB     CLOUDY    77  70  77 NW13G18   29.86R
MILLARD        CLOUDY    76  71  83 NW9       29.87R
LINCOLN        LGT RAIN  74  68  81 N12       29.86S
NEBRASKA CITY  CLOUDY    78  69  73 SW7       29.86R
BEATRICE       CLOUDY    76  68  74 NW5       29.87R
FALLS CITY     CLOUDY    78  72  81 SW8       29.86R

...NORTHERN KANSAS...

CITY           SKY/WX    TMP DP  RH WIND       PRES   REMARKS
GOODLAND       LGT RAIN  65  64  97 N21G26    29.97R
HILL CITY      MOCLDY    77  65  66 S3        29.83F
NORTON         MOSUNNY   70  63  78 N16       29.86R
PHILLIPSBURG   CLEAR     79  66  65 E3        29.83R
SMITH CENTER   PTCLDY    75  68  78 SE6       29.84R
HAYS           MOCLDY    79  63  57 SW13G21   29.83R
RUSSELL        MOCLDY    77  66  68 S14       29.81R
CONCORDIA      CLOUDY    77  68  73 S9        29.84S
SALINA         CLOUDY    78  67  68 S10       29.84R
TOPEKA         CLOUDY    77  72  84 S10       29.87R



USA.gov is the U.S. government's official web portal to all federal, state and local government web resources and services.